Погода в Николаевке

Россия / Новосибирская область     54°48′56″N   75°44′19″E
темп.,
°C
ветер,
м/с
пор.,
м/с
влажн.,
%
обл.,
%
осадки,
мм/ч
давл.,
гПа
погр.,
м
17 июня, чт
чт1701:00+19зсз337771 0.2 101141
04:00+18сз368264 0.0 1010106
07:00+18зсз368656 0.0 1011168
10:00+23сз346643 0.0 1011532
13:00+26зсз35495 0.0 10101882
16:00+28зсз574443 0.0 10091921
19:00+28зсз36456 0.0 10081789
22:00+23ю3361100 0.0 100728
18 июня, пт
пт1801:00+18юз357814 0.8 100672
04:00+17ююз410745 0.0 1004165
07:00+18ююз38776 0.1 1004180
10:00+24ююз5855100 0.0 1002481
13:00+30ююз793775 0.0 10001273
16:00+32юз7103186 0.0 9973332
19:00+24зсз81063100 0.5 998769
22:00+13сз6791100 1.0 1001394
19 июня, сб
сб1901:00+9ссз81292100 1.4 1001504
04:00+9ссз71293100 7.5 1002777
07:00+8ссз71190100 7.8 1004960
10:00+8ссз91289100 0.2 10051049
13:00+7ссз81089100 0.7 10071134
16:00+8ссз71185100 0.7 10071203
19:00+10с61278100 0.9 10071368
22:00+9с2583100 0.4 1007194
20 июня, вс
вс2001:00+9ссз1384100 0.8 1007122
04:00+8ссз3788100 1.1 1006413
07:00+8з4992100 3.4 1006777
10:00+10зсз5980100 1.0 1006972
13:00+11сз71278100 3.0 10051452
16:00+12ссз6975100 1.4 10051192
19:00+11ю3483100 2.6 1004380
22:00+8в3597100 1.9 1003162
21 июня, пн
пн2101:00+8юв2398100 3.1 100196
04:00+9юз1295100 0.3 99935
07:00+9ссз499599 0.3 999390
10:00+8сз5891100 0.0 999582
13:00+8ссз6988100 0.1 1000778
16:00+9ссз6987100 0.1 1000754
19:00+9с7128479 0.4 10001126
22:00+8сз91595100 2.5 999877